Location: Moscow
(55.7500°N, 37.5830°E)
Time: 17:27:34
(UTC+03:00)

Transit 2A - Pass Details

Date: 07 December 2021
Orbit: 591 x 967 km, 66.7° (Epoch: 21 January)

Event Time Altitude Azimuth Distance (km) Brightness Sun altitude
Rises 10:22:37 0° 309° (NW) 3,666 8.9 7.7°
Reaches altitude 10° 10:27:38 10° 275° (W) 2,697 8.6 8.0°
Maximum altitude 10:29:03 11° 262° (W) 2,627 8.6 8.1°
Drops below altitude 10° 10:30:27 10° 249° (WSW) 2,670 8.8 8.2°
Sets 10:35:20 0° 215° (SW) 3,542 9.9 8.4°
